Location: Grainger
(51.5000°N, 113.3333°W)
Time: 09:48:16
(UTC+00:00)

Envisat - Visible Passes

Search period start: 28 May 2023 00:00
Search period end: 07 June 2023 00:00
Orbit: 763 x 765 km, 98.2° (Epoch: 27 May)

Date Brightness Start Highest point End Pass type
(mag) Time Alt. Az. Time Alt. Az. Time Alt. Az.
29 May 5.0 10:36:52 10° NE 10:41:10 27° E 10:45:25 10° SSE visible
30 May 5.6 10:01:03 10° NE 10:03:32 14° E 10:06:01 10° ESE visible
01 Jun 5.3 10:24:44 10° NE 10:28:36 21° E 10:32:27 10° SE visible
02 Jun 5.9 09:49:57 10° ENE 09:50:54 10° E 09:51:52 10° E visible
04 Jun 5.5 10:12:42 10° NE 10:16:02 17° E 10:19:20 10° SE visible
